sat.trackr.live / text

‹ back to catalog

UNKNOWN

NORAD 87616

UNKNOWN UNKNOWN UNKNOWN

§ Identity

Operator
Country
Launch date
Launch site
Launch vehicle
Mass (kg)
RCS (m²)

External: N2YO · Heavens-Above

§ Orbital elements

Epoch: 2026-05-24T03:08:16.341216Z

Period
115.48 min
Inclination
66.0345°
Eccentricity
0.0623261
Mean motion
12.47019768 rev/d
Perigee alt
987.4 km
Apogee alt
1,966.6 km
Semi-major
7,855.1 km
B*
-4.3392e-4
RAAN
189.2017°
Arg perigee
69.0328°
Mean anomaly
326.7950°
Rev number
55,648

§ Raw data

UNKNOWN1 87616U          26144.13074469 -.00000183  00000+0 -43392-3 0  99962 87616  66.0345 189.2017 0623261  69.0328 326.7950 12.47019768556485

JSON: /api/v1/satellites/87616 · /tle

For live sub-satellite position, see the globe view (requires WebGL).

§ Visibility from observer

Set your observer location to see the next 7 days of passes ≥ 10°. The values pass through the URL so the page stays shareable.

No JS? Fill the form by hand. The geolocation button needs JavaScript.